Location: Cahas Mountain Overlook
(37.0833°N, 80.1000°W)
Time: 17:22:22
(UTC-05:00)

ISS - Pass Details

Date: 04 December 2021
Orbit: 413 x 422 km, 51.6° (Epoch: 28 January)

Event Time Altitude Azimuth Distance (km) Brightness Sun altitude
Rises 18:01:12 0° 321° (NW) 2,381 0.3 -11.4°
Reaches altitude 10° 18:03:49 10° 341° (NNW) 1,511 -0.9 -11.9°
Maximum altitude 18:06:12 18° 26° (NNE) 1,128 -2.0 -12.4°
Enters shadow 18:06:44 17° 38° (NE) 1,149 -2.0 -12.5°
